Location: New Town
(33.2710°N, 90.7534°W)
Time: 12:15:46
(UTC+00:00)

S-56A Canister/Altair - All Passes

Search period start: 13 May 2021 00:00
Search period end: 23 May 2021 00:00
Orbit: 631 x 2501 km, 38.9° (Epoch: 12 May)

Date Brightness Start Highest point End Pass type
(mag) Time Alt. Az. Time Alt. Az. Time Alt. Az.
13 May - 01:27:32 10° WNW 01:42:17 73° N 01:52:55 10° E visible
13 May - 03:35:39 10° WNW 03:48:23 67° SSW 03:56:49 10° SE visible
13 May - 05:45:12 10° W 05:51:33 19° SW 05:56:37 10° SSW visible
13 May - 18:37:29 10° S 18:47:56 30° SE 18:59:53 10° E daylight
13 May - 20:39:19 10° SW 20:53:15 72° SSE 21:08:03 10° ENE daylight
13 May - 22:45:28 10° W 23:00:42 75° NNW 23:14:18 10° ENE daylight
14 May - 00:53:40 10° WNW 01:08:43 72° N 01:20:03 10° E visible
14 May - 03:01:46 10° WNW 03:15:17 74° SSW 03:24:23 10° SE visible
14 May - 05:10:48 10° W 05:18:56 24° SW 05:25:05 10° S visible
14 May - 18:05:25 10° S 18:14:47 25° SE 18:25:38 10° E daylight
14 May - 20:06:20 10° SW 20:19:40 66° SE 20:34:33 10° ENE daylight
14 May - 22:11:54 10° WSW 22:26:54 78° NNW 22:41:04 10° ENE daylight
15 May - 00:19:50 10° WNW 00:35:05 71° N 00:47:06 10° E daylight
15 May - 02:27:54 10° WNW 02:42:04 81° SSW 02:51:50 10° ESE visible
15 May - 04:36:34 10° WNW 04:46:13 30° SW 04:53:18 10° S visible
15 May - 17:33:36 10° S 17:41:43 21° SE 17:51:08 10° E daylight
15 May - 19:33:29 10° SW 19:46:09 61° SE 20:00:57 10° ENE daylight
15 May - 21:38:28 10° WSW 21:53:07 81° NNW 22:07:45 10° ENE daylight
15 May - 23:46:03 10° W 00:01:22 70° N 00:14:03 10° E daylight
16 May - 01:54:03 10° WNW 02:08:44 86° SSW 02:19:11 10° ESE visible
16 May - 04:02:27 10° WNW 04:13:25 36° SW 04:21:19 10° SSE visible
16 May - 17:02:11 10° SSE 17:08:44 17° SE 17:16:14 10° E daylight
16 May - 19:00:47 10° SW 19:12:44 55° SE 19:27:14 10° ENE daylight
16 May - 21:05:09 10° WSW 21:19:20 84° NNW 21:34:22 10° ENE daylight
16 May - 23:12:20 10° W 23:27:35 70° N 23:40:55 10° E daylight
17 May - 01:20:14 10° WNW 01:35:18 89° NNE 01:46:27 10° ESE visible
17 May - 03:28:24 10° WNW 03:40:31 42° SW 03:49:10 10° SSE visible
17 May - 16:31:34 10° SE 16:35:51 13° ESE 16:40:33 10° ESE daylight
17 May - 18:28:12 10° SSW 18:39:24 49° SE 18:53:25 10° ENE daylight
17 May - 20:31:57 10° WSW 20:45:36 88° NNW 21:00:53 10° ENE daylight
17 May - 22:38:43 10° W 22:53:45 70° N 23:07:41 10° E daylight
18 May - 00:46:27 10° WNW 01:01:46 85° NNE 01:13:36 10° ESE daylight
18 May - 02:54:24 10° WNW 03:07:29 49° SW 03:16:54 10° SSE visible
18 May - 05:07:56 10° WSW 05:10:24 11° WSW 05:12:42 10° SW visible
18 May - 17:55:46 10° SSW 18:06:11 43° SE 18:19:31 10° ENE daylight
18 May - 19:58:52 10° WSW 20:11:55 88° SSE 20:27:18 10° ENE daylight
18 May - 22:05:12 10° W 22:19:55 71° N 22:34:20 10° E daylight
19 May - 00:12:43 10° WNW 00:28:08 81° NNE 00:40:39 10° ESE daylight
19 May - 02:20:29 10° WNW 02:34:22 56° SW 02:44:30 10° SE visible
19 May - 04:31:42 10° W 04:37:41 15° WSW 04:42:49 10° SSW visible
19 May - 17:23:29 10° SSW 17:33:04 37° SE 17:45:29 10° ENE daylight
19 May - 19:25:55 10° WSW 19:38:18 83° SSE 19:53:39 10° ENE daylight
19 May - 21:31:46 10° W 21:46:04 71° N 22:00:55 10° ENE daylight
19 May - 23:39:03 10° WNW 23:54:26 78° NNE 00:07:35 10° ESE daylight
20 May - 01:46:37 10° WNW 02:01:06 62° SW 02:12:00 10° SE visible
20 May - 03:56:42 10° W 04:04:54 20° SW 04:11:38 10° SSW visible
20 May - 16:51:22 10° S 17:00:03 31° SE 17:11:21 10° ENE daylight
20 May - 18:53:06 10° SW 19:04:47 78° SSE 19:19:57 10° ENE daylight
20 May - 20:58:27 10° W 21:12:14 73° N 21:27:23 10° ENE daylight
20 May - 23:05:28 10° WNW 23:20:40 76° NNE 23:34:25 10° E daylight
21 May - 01:12:49 10° WNW 01:27:45 68° SSW 01:39:21 10° SE visible
21 May - 03:22:06 10° W 03:32:02 25° SW 03:40:01 10° S visible
21 May - 16:19:26 10° S 16:27:09 26° SE 16:37:04 10° E daylight
21 May - 18:20:22 10° SW 18:31:22 72° SSE 18:46:10 10° ENE daylight
21 May - 20:25:15 10° W 20:38:27 74° N 20:53:46 10° ENE daylight
21 May - 22:31:57 10° WNW 22:46:51 74° N 23:01:07 10° E daylight
22 May - 00:39:05 10° WNW 00:54:18 74° SSW 01:06:36 10° SE daylight
22 May - 02:47:45 10° WNW 02:59:05 30° SW 03:08:06 10° S visible
22 May - 15:47:45 10° S 15:54:20 21° SE 16:02:35 10° E daylight
22 May - 17:47:46 10° SW 17:58:03 66° SE 18:12:20 10° ENE daylight
22 May - 19:52:09 10° W 20:04:43 76° NNW 20:20:06 10° ENE daylight
22 May - 21:58:32 10° WNW 22:13:02 72° N 22:27:43 10° E daylight
